Burlington, WA
on Monday, November 12, 2012

Monday
Previous Day Next Day
Daily Summary
 ActualAverage (KBLI)Record (KBLI)
Temperature
Mean Temperature °F 44°F  
Max Temperature 51°F 51°F 65°F (1990)
Min Temperature 42°F 38°F 5°F (1955)
Degree Days
Heating Degree Days 18 21  
Month to date heating degree days 237  
Cooling Degree Days 0 0  
Month to date cooling degree days 0  
Year to date cooling degree days 42  
Moisture
Dew Point 46°F   
Average Humidity 98    
Maximum Humidity 100    
Minimum Humidity 87    
Precipitation
Precipitation 0.01 in 0.20 in 0.85 in (2006)
Month to date precipitation 2.33  
Year to date precipitation 28.14  
Wind
Wind Speed 6 mph   
Max Wind Speed 13 mph   
Max Gust Speed 20 mph   
Visibility 9 miles   
Events     

Key: T is trace of precipitation, MM is missing value
Source: NWS Daily Summary
Time(PST)TemperatureDew PointHumidity Pressure Visibility Wind DirectionWind SpeedGust SpeedPrecipitationEvents Conditions
12:15 AM 42.8°F 42.8°F 100% 30.07 in 10.0 miles East 9.2 mph - 0.00 in   Overcast
12:35 AM 42.8°F 42.8°F 100% 30.07 in 10.0 miles ENE 6.9 mph - 0.00 in   Overcast
12:55 AM 42.8°F 42.8°F 100% 30.06 in 10.0 miles East 5.8 mph - 0.00 in   Overcast
1:15 AM 46.4°F 44.6°F 93% 30.06 in 9.0 miles ESE 11.5 mph - 0.00 in   Overcast
1:35 AM 48.2°F 44.6°F 87% 30.06 in 10.0 miles ESE 9.2 mph - 0.00 in   Overcast
2:15 AM 44.6°F 44.6°F 100% 30.07 in 10.0 miles East 6.9 mph - 0.00 in   Overcast
2:35 AM 44.6°F 44.6°F 100% 30.07 in 10.0 miles ESE 12.7 mph - 0.00 in   Overcast
2:55 AM 46.4°F 44.6°F 93% 30.07 in 10.0 miles ESE 8.1 mph - 0.00 in   Overcast
3:15 AM 44.6°F 44.6°F 100% 30.07 in 10.0 miles East 8.1 mph - 0.00 in   Overcast
3:35 AM 44.6°F 44.6°F 100% 30.07 in 10.0 miles East 5.8 mph - 0.00 in   Overcast
3:55 AM 44.6°F 44.6°F 100% 30.07 in 10.0 miles East 8.1 mph - 0.00 in   Overcast
4:15 AM 44.6°F 44.6°F 100% 30.08 in 10.0 miles East 4.6 mph - 0.00 in   Overcast
4:55 AM 44.6°F 44.6°F 100% 30.08 in 8.0 miles East 6.9 mph - 0.00 in   Overcast
5:15 AM 46.4°F 44.6°F 93% 30.08 in 10.0 miles SE 10.4 mph - 0.00 in   Overcast
5:35 AM 48.2°F 46.4°F 93% 30.08 in 10.0 miles SE 9.2 mph 19.6 mph 0.00 in   Overcast
5:55 AM 48.2°F 46.4°F 93% 30.09 in 10.0 miles SSE 8.1 mph - 0.00 in   Overcast
6:15 AM 48.2°F 46.4°F 93% 30.10 in 10.0 miles SSE 5.8 mph - 0.00 in   Overcast
6:35 AM 48.2°F 46.4°F 93% 30.10 in 7.0 miles SSE 5.8 mph - 0.00 in   Overcast
6:55 AM 48.2°F 46.4°F 93% 30.10 in 10.0 miles SE 5.8 mph - 0.00 in   Overcast
7:15 AM 48.2°F 46.4°F 93% 30.11 in 10.0 miles ESE 6.9 mph - 0.00 in   Overcast
7:35 AM 46.4°F 46.4°F 100% 30.11 in 10.0 miles East 5.8 mph - 0.00 in   Overcast
7:55 AM 46.4°F 46.4°F 100% 30.12 in 9.0 miles East 5.8 mph - 0.00 in   Overcast
8:15 AM 44.6°F 44.6°F 100% 30.12 in 9.0 miles East 6.9 mph - 0.00 in   Overcast
8:35 AM 44.6°F 44.6°F 100% 30.12 in 9.0 miles East 6.9 mph - 0.00 in   Overcast
9:15 AM 44.6°F 44.6°F 100% 30.13 in 9.0 miles NNE 4.6 mph - 0.00 in   Overcast
9:35 AM 44.6°F 44.6°F 100% 30.14 in 9.0 miles ENE 4.6 mph - 0.00 in   Overcast
9:55 AM 44.6°F 44.6°F 100% 30.14 in 5.0 miles ENE 5.8 mph - 0.00 in   Overcast
10:15 AM 44.6°F 44.6°F 100% 30.15 in 3.0 miles Calm Calm - 0.00 in   Overcast
10:35 AM 46.4°F 46.4°F 100% 30.15 in 2.5 miles ENE 4.6 mph - 0.00 in   Overcast
10:55 AM 46.4°F 46.4°F 100% 30.16 in 4.0 miles NNE 3.5 mph - 0.00 in   Overcast
11:15 AM 44.6°F 44.6°F 100% 30.16 in 3.0 miles NE 3.5 mph - 0.00 in   Overcast
11:35 AM 46.4°F 46.4°F 100% 30.16 in 3.0 miles ENE 3.5 mph - 0.00 in   Overcast
11:55 AM 46.4°F 46.4°F 100% 30.16 in 4.0 miles NE 4.6 mph - 0.00 in   Overcast
12:15 PM 46.4°F 46.4°F 100% 30.16 in 1.8 miles ENE 4.6 mph - 0.00 in   Overcast
12:35 PM 46.4°F 46.4°F 100% 30.16 in 4.0 miles NE 3.5 mph - 0.01 in   Overcast
12:55 PM 46.4°F 46.4°F 100% 30.16 in 5.0 miles Calm Calm - 0.01 in   Overcast
1:15 PM 46.4°F 46.4°F 100% 30.16 in 6.0 miles East 4.6 mph - 0.00 in   Overcast
1:35 PM 48.2°F 48.2°F 100% 30.16 in 8.0 miles East 3.5 mph - 0.00 in   Overcast
2:15 PM 50.0°F 50.0°F 100% 30.16 in 9.0 miles SSE 3.5 mph - 0.00 in   Overcast
2:35 PM 51.8°F 51.8°F 100% 30.16 in 9.0 miles SE 4.6 mph - 0.00 in   Overcast
3:15 PM 50.0°F 50.0°F 100% 30.16 in 9.0 miles SSE 5.8 mph - 0.00 in   Mostly Cloudy
3:35 PM 50.0°F 50.0°F 100% 30.17 in 10.0 miles SSE 5.8 mph - 0.00 in   Mostly Cloudy
3:55 PM 48.2°F 48.2°F 100% 30.17 in 10.0 miles SSE 5.8 mph - 0.00 in   Mostly Cloudy
4:15 PM 48.2°F 48.2°F 100% 30.17 in 10.0 miles SSE 3.5 mph - 0.00 in   Overcast
4:55 PM 48.2°F 48.2°F 100% 30.17 in 10.0 miles Calm Calm - 0.00 in   Mostly Cloudy
5:15 PM 46.4°F 46.4°F 100% 30.17 in 10.0 miles East 3.5 mph - 0.00 in   Overcast
5:35 PM 48.2°F 48.2°F 100% 30.17 in 10.0 miles ESE 3.5 mph - 0.00 in   Overcast
5:55 PM 48.2°F 48.2°F 100% 30.17 in 10.0 miles East 4.6 mph - 0.00 in   Overcast
6:15 PM 48.2°F 48.2°F 100% 30.18 in 9.0 miles ENE 4.6 mph - 0.00 in   Overcast
6:35 PM 46.4°F 46.4°F 100% 30.18 in 10.0 miles NE 3.5 mph - 0.00 in   Overcast
6:55 PM 46.4°F 46.4°F 100% 30.18 in 10.0 miles NE 8.1 mph - 0.00 in   Overcast
7:15 PM 46.4°F 46.4°F 100% 30.18 in 10.0 miles NE 3.5 mph - 0.00 in   Overcast
7:35 PM 46.4°F 46.4°F 100% 30.18 in 10.0 miles NE 4.6 mph - 0.00 in   Overcast
7:55 PM 48.2°F 46.4°F 93% 30.18 in 10.0 miles NE 3.5 mph - 0.00 in   Overcast
8:15 PM 48.2°F 46.4°F 93% 30.18 in 10.0 miles NE 5.8 mph - 0.00 in   Overcast
8:35 PM 46.4°F 46.4°F 100% 30.18 in 10.0 miles ENE 4.6 mph - 0.00 in   Overcast
8:55 PM 48.2°F 46.4°F 93% 30.18 in 10.0 miles ENE 6.9 mph - 0.00 in   Overcast
9:15 PM 48.2°F 48.2°F 100% 30.18 in 10.0 miles ENE 4.6 mph - 0.00 in   Overcast
9:35 PM 48.2°F 46.4°F 93% 30.19 in 10.0 miles Calm Calm - 0.00 in   Overcast
9:55 PM 48.2°F 46.4°F 93% 30.19 in 10.0 miles ENE 3.5 mph - 0.00 in   Overcast
10:15 PM 48.2°F 48.2°F 100% 30.19 in 10.0 miles ENE 3.5 mph - 0.00 in   Overcast
10:35 PM 50.0°F 48.2°F 94% 30.19 in 10.0 miles SE 6.9 mph - 0.00 in   Overcast
10:55 PM 51.8°F 48.2°F 88% 30.20 in 10.0 miles SSE 5.8 mph - 0.00 in   Overcast
11:15 PM 51.8°F 48.2°F 88% 30.20 in 10.0 miles SSE 4.6 mph - 0.00 in   Overcast
11:35 PM 50.0°F 48.2°F 94% 30.21 in 10.0 miles SSE 6.9 mph - 0.00 in   Overcast
Moon Phase
Nov. 12 Nov. 13 Nov. 20 Nov. 28 Dec. 06
Sunrise:07:13 AM (PST) Moon Rise:05:42 AM (PST)11/12
Sunset:04:33 PM (PST) Moon Set:03:44 PM (PST)11/12

Copyright © 2014 The Weather Underground, Inc.